TimeEDT,TemperatureF,Dew PointF,Humidity,Sea Level PressureIn,VisibilityMPH,Wind Direction,Wind SpeedMPH,Gust SpeedMPH,PrecipitationIn,Events,Conditions,WindDirDegrees,DateUTC
12:53 AM,50.0,46.0,86,30.21,10.0,ENE,5.8,-,N/A,,Clear,70,2013-10-15 04:53:00
1:53 AM,50.0,46.0,86,30.19,10.0,ENE,4.6,-,N/A,,Clear,70,2013-10-15 05:53:00
2:53 AM,50.0,46.9,89,30.17,10.0,NE,3.5,-,N/A,,Clear,50,2013-10-15 06:53:00
3:53 AM,48.0,46.0,93,30.16,10.0,East,3.5,-,N/A,,Clear,80,2013-10-15 07:53:00
4:53 AM,46.9,46.0,97,30.16,10.0,Calm,Calm,-,N/A,,Clear,0,2013-10-15 08:53:00
5:24 AM,46.4,46.4,100,30.15,10.0,Calm,Calm,-,N/A,,Scattered Clouds,0,2013-10-15 09:24:00
5:33 AM,46.4,46.4,100,30.15,10.0,Calm,Calm,-,N/A,,Mostly Cloudy,0,2013-10-15 09:33:00
5:53 AM,48.0,46.0,93,30.15,10.0,Calm,Calm,-,N/A,,Overcast,0,2013-10-15 09:53:00
6:42 AM,48.2,46.4,93,30.15,10.0,Calm,Calm,-,N/A,,Overcast,0,2013-10-15 10:42:00
6:53 AM,48.9,46.9,93,30.14,10.0,Calm,Calm,-,N/A,,Overcast,0,2013-10-15 10:53:00
7:43 AM,48.2,46.4,93,30.13,8.0,Calm,Calm,-,N/A,,Partly Cloudy,0,2013-10-15 11:43:00
7:53 AM,48.0,46.9,96,30.13,9.0,Calm,Calm,-,N/A,,Partly Cloudy,0,2013-10-15 11:53:00
8:53 AM,51.1,48.9,92,30.13,7.0,Calm,Calm,-,N/A,,Clear,0,2013-10-15 12:53:00
9:53 AM,55.9,54.0,93,30.13,4.0,ESE,5.8,-,N/A,,Mostly Cloudy,120,2013-10-15 13:53:00
10:07 AM,55.4,53.6,94,30.12,4.0,ESE,4.6,-,N/A,,Overcast,120,2013-10-15 14:07:00
10:53 AM,57.9,55.9,93,30.11,4.0,South,5.8,-,N/A,,Overcast,170,2013-10-15 14:53:00
11:19 AM,59.0,57.2,94,30.11,2.5,SSE,4.6,-,N/A,,Overcast,160,2013-10-15 15:19:00
11:28 AM,59.0,57.2,94,30.10,3.0,SSE,5.8,-,N/A,,Overcast,150,2013-10-15 15:28:00
11:35 AM,59.0,57.2,94,30.10,2.0,SSE,8.1,-,N/A,,Overcast,160,2013-10-15 15:35:00
11:37 AM,59.0,57.2,94,30.10,1.8,SSE,9.2,-,N/A,,Overcast,150,2013-10-15 15:37:00
11:50 AM,59.0,57.2,94,30.09,2.0,SSE,5.8,-,N/A,,Overcast,150,2013-10-15 15:50:00
11:53 AM,59.0,57.0,93,30.10,2.5,SSE,8.1,-,N/A,,Overcast,160,2013-10-15 15:53:00
12:06 PM,59.0,57.2,94,30.09,3.0,South,5.8,-,N/A,,Overcast,170,2013-10-15 16:06:00
12:17 PM,60.8,57.2,88,30.10,2.0,South,6.9,-,N/A,,Overcast,180,2013-10-15 16:17:00
12:34 PM,60.8,57.2,88,30.10,2.0,SSW,8.1,-,N/A,,Overcast,200,2013-10-15 16:34:00
12:53 PM,61.0,57.9,90,30.09,2.0,South,5.8,-,N/A,,Overcast,180,2013-10-15 16:53:00
1:53 PM,62.1,57.9,86,30.06,6.0,South,5.8,-,N/A,,Overcast,180,2013-10-15 17:53:00
2:53 PM,63.0,59.0,87,30.04,6.0,SSE,6.9,-,N/A,,Overcast,150,2013-10-15 18:53:00
3:53 PM,66.0,60.1,81,30.01,8.0,SSE,5.8,-,N/A,,Overcast,160,2013-10-15 19:53:00
4:19 PM,66.2,60.8,83,30.01,9.0,SSE,8.1,-,N/A,,Mostly Cloudy,150,2013-10-15 20:19:00
4:53 PM,66.9,60.1,79,30.01,10.0,SSE,8.1,-,N/A,,Mostly Cloudy,150,2013-10-15 20:53:00
5:09 PM,66.2,60.8,83,30.00,10.0,SE,10.4,-,N/A,,Scattered Clouds,140,2013-10-15 21:09:00
5:53 PM,66.9,60.1,79,29.99,10.0,SSE,8.1,-,N/A,,Clear,150,2013-10-15 21:53:00
6:53 PM,66.9,61.0,81,29.96,10.0,SSE,6.9,-,N/A,,Clear,150,2013-10-15 22:53:00
7:53 PM,68.0,61.0,78,29.96,10.0,SSE,8.1,-,N/A,,Mostly Cloudy,160,2013-10-15 23:53:00
8:53 PM,66.9,61.0,81,29.96,10.0,South,9.2,-,N/A,,Overcast,170,2013-10-16 00:53:00
9:53 PM,66.9,61.0,81,29.96,10.0,South,8.1,-,N/A,,Overcast,180,2013-10-16 01:53:00
10:53 PM,66.0,61.0,84,29.96,10.0,South,8.1,-,N/A,,Overcast,190,2013-10-16 02:53:00
11:53 PM,66.0,61.0,84,29.96,10.0,SSW,8.1,-,N/A,,Overcast,200,2013-10-16 03:53:00